Location: Asheville, NC
(35.6000°N, 82.5500°W)
Time: 17:31:24
(UTC-04:00)

Vanguard 1 - Pass Details

Date: 15 December 2017
Orbit: 650 x 3833 km, 34.2° (Epoch: 21 July)

Event Time Altitude Azimuth Distance (km) Brightness Sun altitude
Rises 06:13:18 0° 205° (SSW) 7,474 14.5 -15.6°
Reaches altitude 10° 06:18:56 10° 197° (SSW) 6,707 14.3 -14.6°
Maximum altitude 06:38:23 35° 141° (SE) 5,002 14.2 -10.8°
Drops below altitude 10° 06:55:20 10° 84° (E) 5,966 15.1 -7.6°
Sets 06:59:49 0° 76° (ENE) 6,610 15.2 -6.8°
